Flag for U.S.A. Weather past 2 weeks in Topeka, Kansas, U.S.A.

Now
90 °F

Sunny.


Feels Like: 94 °F
Forecast: 68 / 89 °F
Wind: 12 mph from South

Location: Philip Billard Municipal Airport

Current Time: Aug 31, 2015 at 5:48:59 PM

Latest Report: Aug 31, 2015 at 4:53 PM


Visibility: 10 mi

Pressure: 29.89 "Hg

Humidity: 48%

Dew point: 68 °F

Location of TopekaLocation

Historic Weather in Topeka — Graph

°F

Topeka temperature yesterday

Maximum temperature yesterday: 83 °F (at 3:53 PM)
Minimum temperature yesterday: 60 °F (at 3:59 AM)
Average temperature yesterday: 71 °F

Past Weeks' High & Low Weather Summary

 TemperatureHumidityPressure
High90 °F (Aug 31, 2:53 PM)100% (Aug 25, 2:53 AM)30.21 "Hg (Aug 25, 2:53 AM)
Low52 °F (Aug 24, 4:53 AM)33% (Aug 20, 3:53 PM)29.65 "Hg (Aug 18, 3:53 PM)
Average72 °F74%29.98 "Hg
* Reported Aug 16 3:53 PM — Aug 31 3:53 PM, Topeka, Weather by CustomWeather, © 2015

Note: Actual official high and low records may vary slightly from our data, if they occured in-between our weather recording intervals... More about our weather records

Advertising

Topeka weather history for previous 24 hours

 ConditionsComfort  
Time TempWeatherWind HumidityBarometerVisibility
3:53 PM
Mon, Aug 31
90 °FSunny.13 mph48%29.90 "Hg10 mi
2:53 PM90 °FSunny.9 mph48%29.91 "Hg10 mi
1:53 PM88 °FSunny.7 mph54%29.93 "Hg10 mi
12:53 PM87 °FSunny.7 mph55%29.94 "Hg10 mi
11:53 AM84 °FHaze.7 mph61%29.96 "Hg6 mi
10:53 AM81 °FSunny.6 mph74%29.96 "Hg8 mi
9:53 AM77 °FScattered clouds.6 mph85%29.96 "Hg6 mi
9:00 AM72 °FFog.No wind91%29.99 "Hg4 mi
8:04 AM67 °FFog.No wind100%29.98 "Hg2 mi
7:53 AM66 °FFog.No wind100%29.96 "Hg2 mi
6:53 AM65 °FFog.No wind100%29.94 "Hg0 mi
5:53 AM66 °FFog.No wind96%29.93 "Hg0 mi
4:53 AM67 °FFog.No wind93%29.93 "Hg5 mi
3:53 AM68 °FFog.No wind96%29.93 "Hg6 mi
2:53 AM69 °FFog.No wind93%29.93 "Hg6 mi
1:53 AM68 °FFog.No wind96%29.93 "Hg3 mi
12:53 AM68 °FFog.No wind96%29.94 "Hg4 mi
12:01 AM68 °FFog.No wind96%29.96 "Hg1 mi
10:53 PM
Sun, Aug 30
70 °FFog.No wind93%29.96 "Hg6 mi
9:53 PM71 °FClear.3 mph93%29.95 "Hg7 mi
8:53 PM75 °FSunny.No wind88%29.93 "Hg9 mi
7:53 PM77 °FScattered clouds.No wind82%29.92 "Hg9 mi
6:53 PM80 °FMostly cloudy.6 mph71%29.93 "Hg10 mi
5:53 PM82 °FBroken clouds.7 mph67%29.94 "Hg10 mi
Weather by CustomWeather, © 2015

See weather overviewHow to use our weather pages